User: anonymous   Login
Location: Ladysmith
(45.4630°N, 91.1040°W)
Time: 02:14:49
(UTC-05:00)
Language:

SO-67 - Orbit

View from above orbital plane
View from above orbital plane
View from above satellite
View from above satellite

Ground track
Ground track

The orbit data is extracted from the following two-line orbital elements,

1 35870U 09049F   17149.89802409 +.00011298 +00000-0 +18052-3 0  9997
2 35870 097.1031 166.7812 0004240 114.6266 005.4555 15.53322275430380
Epoch (UTC): 29 May 2017 21:33:09
Eccentricity: 0.0004240
inclination: 97.1031°
perigee height: 404 km
apogee height: 410 km
right ascension of ascending node: 166.7812°
argument of perigee: 114.6266°
revolutions per day: 15.53322275
mean anomaly at epoch: 5.4555°
orbit number at epoch: 43038

The dashed part of the orbit path shows where the satellite is in the earth's shadow,  

DLR